sat.trackr.live / text

‹ back to catalog

STARLINK-38086

NORAD 69998 · 2026-159Z

PAYLOAD ACTIVE UNKNOWN

§ Identity

Operator
Country
US
Launch date
2026-07-11
Launch site
AFWTR
Launch vehicle
Mass (kg)
RCS (m²)

Purposes: comms

External: N2YO · Heavens-Above · Gunter

§ Orbital elements

Epoch: 2026-09-20T00:48:40.453920Z

Period
91.41 min
Inclination
97.2841°
Eccentricity
0.0003187
Mean motion
15.75299077 rev/d
Perigee alt
341.6 km
Apogee alt
345.9 km
Semi-major
6,721.9 km
B*
1.4719e-3
RAAN
105.1346°
Arg perigee
65.5958°
Mean anomaly
294.5640°
Rev number
1,239

§ Raw data

STARLINK-380861 69998U 26159Z   26263.03380155  .00226432  00000+0  14719-2 0  99902 69998  97.2841 105.1346 0003187  65.5958 294.5640 15.75299077 12398

JSON: /api/v1/satellites/69998 · /tle

For live sub-satellite position, see the globe view (requires WebGL).

§ Visibility from observer

Set your observer location to see the next 7 days of passes ≥ 10°. The values pass through the URL so the page stays shareable.

No JS? Fill the form by hand. The geolocation button needs JavaScript.